Location: Vancouver
(49.2500°N, 123.1330°W)
Time: 14:16:20
(UTC-07:00)

Cosmos 2333 Rocket - Visible Passes

Search period start: 01 May 2016 00:00
Search period end: 11 May 2016 00:00
Orbit: 842 x 860 km, 70.8° (Epoch: 30 April)

Date Brightness Start Highest point End Pass type
(mag) Time Alt. Az. Time Alt. Az. Time Alt. Az.
01 May 2.8 01:18:01 40° ESE 01:18:09 40° ESE 01:23:23 10° NE visible
01 May 3.0 03:00:01 28° W 03:02:25 41° NW 03:07:47 10° NNE visible
01 May 4.5 04:45:52 10° NW 04:48:21 13° NNW 04:50:51 10° N visible
02 May 2.8 01:05:50 40° ESE 01:05:56 40° ESE 01:11:10 10° NE visible
02 May 3.0 02:47:50 28° W 02:50:12 41° NW 02:55:34 10° NNE visible
02 May 4.5 04:33:39 10° NW 04:36:08 13° NNW 04:38:38 10° N visible
03 May 2.8 00:53:38 40° ESE 00:53:42 40° ESE 00:58:57 10° NE visible
03 May 3.1 02:35:36 28° W 02:37:59 41° NW 02:43:21 10° NNE visible
03 May 4.5 04:21:26 10° NW 04:23:55 13° NNW 04:26:24 10° N visible
04 May 2.8 00:41:22 40° ESE 00:41:29 40° ESE 00:46:43 10° NE visible
04 May 3.1 02:23:21 28° W 02:25:46 41° NW 02:31:07 10° NNE visible
04 May 4.6 04:09:13 10° NW 04:11:42 13° NNW 04:14:11 10° N visible
05 May 2.8 00:29:05 40° ESE 00:29:16 40° ESE 00:34:31 10° NE visible
05 May 3.1 02:11:04 27° WSW 02:13:32 41° NW 02:18:54 10° NNE visible
05 May 4.6 03:57:00 10° NW 03:59:29 13° NNW 04:01:58 10° N visible
06 May 2.7 00:16:45 40° ESE 00:17:02 40° ESE 00:22:17 10° NE visible
06 May 3.1 01:58:43 26° WSW 02:01:19 41° NW 02:06:41 10° NNE visible
06 May 4.6 03:44:47 10° NW 03:47:15 13° NNW 03:49:44 10° N visible
07 May 2.7 00:04:22 39° ESE 00:04:49 40° ESE 00:10:04 10° NE visible
07 May 3.2 01:46:20 25° WSW 01:49:06 41° NW 01:54:28 10° NNE visible
07 May 4.6 03:32:34 10° NW 03:35:02 13° NNW 03:37:31 10° N visible
07 May 2.7 23:51:55 38° SE 23:52:36 40° ESE 23:57:50 10° NE visible
08 May 3.2 01:33:53 23° WSW 01:36:53 41° NW 01:42:14 10° NNE visible
08 May 4.7 03:20:20 10° NW 03:22:49 13° NNW 03:25:18 10° N visible
08 May 2.7 23:39:25 37° SE 23:40:22 40° ESE 23:45:37 10° NE visible
09 May 3.2 01:21:23 21° WSW 01:24:39 41° NW 01:30:01 10° NNE visible
09 May 4.7 03:08:07 10° NW 03:10:36 13° NNW 03:13:05 10° N visible
09 May 2.7 23:26:50 35° SE 23:28:09 40° ESE 23:33:23 10° NE visible
10 May 3.2 01:08:47 19° WSW 01:12:26 41° NW 01:17:47 10° NNE visible
10 May 4.7 02:55:54 10° NW 02:58:22 13° NNW 03:00:51 10° N visible
10 May 2.7 23:14:09 32° SSE 23:15:56 40° ESE 23:21:10 10° NE visible
